TimeCDT,TemperatureF,Dew PointF,Humidity,Sea Level PressureIn,VisibilityMPH,Wind Direction,Wind SpeedMPH,Gust SpeedMPH,PrecipitationIn,Events,Conditions,WindDirDegrees,DateUTC
12:53 AM,64.0,60.1,87,30.01,10.0,Calm,Calm,-,N/A,,Clear,0,2013-07-13 05:53:00
1:53 AM,63.0,59.0,87,30.00,10.0,Calm,Calm,-,N/A,,Clear,0,2013-07-13 06:53:00
2:53 AM,62.1,59.0,90,30.00,10.0,Calm,Calm,-,N/A,,Clear,0,2013-07-13 07:53:00
3:53 AM,60.1,57.9,93,30.00,9.0,Calm,Calm,-,N/A,,Clear,0,2013-07-13 08:53:00
4:53 AM,59.0,57.9,96,30.01,9.0,Calm,Calm,-,N/A,,Clear,0,2013-07-13 09:53:00
5:31 AM,57.2,55.4,94,30.02,1.8,Calm,Calm,-,N/A,,Clear,0,2013-07-13 10:31:00
5:39 AM,57.2,55.4,94,30.02,3.0,Calm,Calm,-,N/A,,Clear,0,2013-07-13 10:39:00
5:53 AM,57.9,55.9,93,30.01,4.0,Calm,Calm,-,N/A,,Clear,0,2013-07-13 10:53:00
6:53 AM,62.1,60.1,93,30.02,8.0,Calm,Calm,-,N/A,,Clear,0,2013-07-13 11:53:00
7:53 AM,69.1,62.1,78,30.03,10.0,NNE,3.5,-,N/A,,Clear,30,2013-07-13 12:53:00
8:53 AM,79.0,61.0,54,30.01,10.0,ENE,9.2,-,N/A,,Clear,70,2013-07-13 13:53:00
9:53 AM,81.0,59.0,47,30.02,10.0,NE,10.4,-,N/A,,Clear,40,2013-07-13 14:53:00
10:53 AM,82.0,57.9,44,30.04,10.0,Variable,6.9,16.1,N/A,,Clear,0,2013-07-13 15:53:00
11:53 AM,82.9,57.9,42,30.03,10.0,NNE,10.4,16.1,N/A,,Clear,30,2013-07-13 16:53:00
12:53 PM,84.0,57.9,41,30.02,10.0,NE,6.9,-,N/A,,Clear,40,2013-07-13 17:53:00
1:53 PM,84.0,57.9,41,30.01,10.0,NE,5.8,-,N/A,,Partly Cloudy,50,2013-07-13 18:53:00
2:53 PM,84.0,59.0,43,29.99,10.0,NNE,9.2,-,N/A,,Clear,30,2013-07-13 19:53:00
3:53 PM,84.0,60.1,44,29.98,10.0,NW,4.6,-,N/A,,Clear,320,2013-07-13 20:53:00
4:53 PM,86.0,61.0,43,29.97,10.0,NNW,5.8,-,N/A,,Partly Cloudy,340,2013-07-13 21:53:00
5:53 PM,82.0,61.0,49,29.97,10.0,ENE,9.2,-,N/A,,Scattered Clouds,60,2013-07-13 22:53:00
6:53 PM,82.9,61.0,47,29.98,10.0,NE,6.9,-,N/A,,Partly Cloudy,40,2013-07-13 23:53:00
7:53 PM,77.0,62.1,60,29.99,10.0,NE,4.6,-,N/A,,Scattered Clouds,50,2013-07-14 00:53:00
8:53 PM,72.0,63.0,73,29.99,10.0,Calm,Calm,-,N/A,,Clear,0,2013-07-14 01:53:00
9:53 PM,69.1,63.0,81,30.00,10.0,Calm,Calm,-,N/A,,Clear,0,2013-07-14 02:53:00
10:53 PM,70.0,63.0,78,30.00,10.0,Calm,Calm,-,N/A,,Clear,0,2013-07-14 03:53:00
11:53 PM,69.1,63.0,81,30.01,10.0,Calm,Calm,-,N/A,,Partly Cloudy,0,2013-07-14 04:53:00